This demonstration page uses our WeatherBlox Daily Observations layout. Learn more.

Left ArrowRight Arrow

39.92423, -83.80882

Hourly Observations for August 5, 2022

Temp ( °F °C ) Dew Point ( °F °C ) Humidity (%) Winds ( mph kmh ) Pressure ( in mb ) Visibility ( mi km ) Precip ( " mm )
12:56 am 00:56 Clear N/A N/A N/A SSE 5 7 N/A 10 16 0.00 0.00
1:56 am 01:56 Clear N/A N/A N/A S 5 7 N/A 10 16 0.00 0.00
2:56 am 02:56 Clear N/A N/A N/A S 3 6 N/A 10 16 0.00 0.00
3:56 am 03:56 Mostly Cloudy N/A N/A N/A NE 3 6 N/A 10 16 0.00 0.00
4:56 am 04:56 Cloudy N/A N/A N/A Calm N/A 10 16 0.00 0.00
5:56 am 05:56 Cloudy N/A N/A N/A Calm N/A 10 16 0.00 0.00
6:56 am 06:56 Partly Cloudy N/A N/A N/A Calm N/A 7 11 0.00 0.00
7:56 am 07:56 Mostly Sunny N/A N/A N/A SE 5 7 N/A 7 11 0.00 0.00
8:56 am 08:56 Partly Cloudy 75 24 N/A N/A SSE 7 11 30.14 1021 10 16 0.00 0.00
9:40 am 09:40 Cloudy 73 23 N/A N/A VRB 3 6 30.13 1020 10 16 0.00 0.00
9:56 am 09:56 Cloudy with Light Rain 73 23 N/A N/A Calm 30.12 1020 9 14 0.00 0.00
10:23 am 10:23 Mostly Cloudy with Light Rain 73 23 N/A N/A Calm 30.12 1020 10 16 0.01 0.25
10:56 am 10:56 Mostly Cloudy 75 24 N/A N/A S 3 6 30.13 1020 10 16 0.01 0.25
11:31 am 11:31 Cloudy 75 24 N/A N/A SSW 3 6 30.14 1021 10 16 0.00 0.00
11:56 am 11:56 Cloudy 75 24 N/A N/A S 5 7 30.15 1021 10 16 0.00 0.00
12:03 pm 12:03 Cloudy 75 24 N/A N/A S 5 7 30.15 1021 10 16 0.00 0.00
12:56 pm 12:56 Cloudy 75 24 N/A N/A SSE 7 11 30.14 1021 10 16 0.00 0.00
1:56 pm 13:56 Cloudy with Light Rain 75 24 N/A N/A S 5 7 30.12 1020 10 16 0.00 0.00
2:10 pm 14:10 Cloudy with Light Rain 77 25 N/A N/A S 5 7 30.11 1020 10 16 0.00 0.00
2:29 pm 14:29 Cloudy 77 25 N/A N/A ESE 3 6 30.11 1020 10 16 0.00 0.00
2:56 pm 14:56 Cloudy 77 25 N/A N/A SSE 6 9 30.11 1020 8 13 0.00 0.00
3:24 pm 15:24 Cloudy 79 26 75 24 89 89 S 7 11 30.10 1019 10 16 0.00 0.00
3:31 pm 15:31 Cloudy 79 26 75 24 89 89 S 8 13 30.10 1019 10 16 0.00 0.00
3:56 pm 15:56 Mostly Cloudy 81 27.2 77 25 88 88 VRB 6 9 30.10 1019 10 16 0.00 0.00
4:56 pm 16:56 Mostly Sunny 81 27.2 73 22.8 77 77 VRB 7 11 30.07 1018 10 16 0.00 0.00
5:56 pm 17:56 Mostly Sunny 82 27.8 75 23.9 79 79 SW 6 9 30.07 1018 10 16 0.00 0.00
6:16 pm 18:16 Mostly Cloudy 81 27 75 24 84 84 S 5 7 30.07 1018 10 16 0.00 0.00
6:28 pm 18:28 Mostly Cloudy 82 28 75 24 79 79 VRB 5 7 30.06 1018 10 16 0.00 0.00
6:56 pm 18:56 Mostly Cloudy 80 26.7 75 23.9 85 85 SSE 6 9 30.07 1018 10 16 0.00 0.00
7:56 pm 19:56 Sunny 78 25.6 77 25 97 97 S 3 6 30.06 1018 10 16 0.00 0.00
8:56 pm 20:56 Clear 75 24 N/A N/A S 5 7 30.10 1019 10 16 0.00 0.00
9:56 pm 21:56 Clear 73 23 N/A N/A SSE 6 9 30.12 1020 10 16 0.00 0.00
10:56 pm 22:56 Clear N/A N/A N/A S 7 11 N/A 10 16 0.00 0.00
11:52 pm 23:52 Partly Cloudy N/A N/A N/A NE 3 6 N/A 10 16 0.00 0.00
11:56 pm 23:56 Mostly Cloudy N/A N/A N/A Calm N/A 10 16 0.00 0.00

Powered by AerisWeather